H1 CPF 2 NER 2025 10 22 9 295 01 glonass129 H2 1106402 9129 37868 2025 10 22 0 0 0 2025 10 25 23 45 0 900 1 1 0 0 0 1 H9 10 0 60970 0.00000 0 -17407653.877 -9196176.640 16219062.040 10 0 60970 900.00000 0 -18731707.278 -10490462.642 13762573.588 10 0 60970 1800.00000 0 -19920566.065 -11460524.260 11038555.698 10 0 60970 2700.00000 0 -20913738.622 -12113227.873 8099796.034 10 0 60970 3600.00000 0 -21655405.374 -12467884.909 5003350.157 10 0 60970 4500.00000 0 -22096851.891 -12555203.147 1809434.738 10 0 60970 5400.00000 0 -22198626.608 -12415760.315 -1419748.830 10 0 60970 6300.00000 0 -21932329.627 -12098064.169 -4621236.943 10 0 60970 7200.00000 0 -21281954.245 -11656281.529 -7732547.275 10 0 60970 8100.00000 0 -20244721.764 -11147733.530 -10692917.257 10 0 60970 9000.00000 0 -18831371.802 -10630264.905 -13444511.316 10 0 60970 9900.00000 0 -17065893.844 -10159600.982 -15933571.069 10 0 60970 10800.00000 0 -14984710.033 -9786806.761 -18111483.986 10 0 60970 11700.00000 0 -12635343.027 -9555958.079 -19935747.811 10 0 60970 12600.00000 0 -10074625.048 -9502125.557 -21370810.586 10 0 60970 13500.00000 0 -7366524.033 -9649758.237 -22388769.023 10 0 60970 14400.00000 0 -4579679.011 -10011536.214 -22969911.324 10 0 60970 15300.00000 0 -1784749.129 -10587741.063 -23103094.116 10 0 60970 16200.00000 0 948311.852 -11366170.261 -22785946.862 10 0 60970 17100.00000 0 3552941.055 -12322598.302 -22024900.871 10 0 60970 18000.00000 0 5968499.778 -13421763.728 -20835043.712 10 0 60970 18900.00000 0 8142549.438 -14618838.881 -19239803.378 10 0 60970 19800.00000 0 10032776.550 -15861318.889 -17270469.952 10 0 60970 20700.00000 0 11608488.380 -17091248.825 -14965565.617 10 0 60970 21600.00000 0 12851619.485 -18247694.129 -12370076.728 10 0 60970 22500.00000 0 13757210.143 -19269349.559 -9534564.113 10 0 60970 23400.00000 0 14333339.997 -20097176.627 -6514169.947 10 0 60970 24300.00000 0 14600523.033 -20676958.816 -3367541.268 10 0 60970 25200.00000 0 14590592.347 -20961667.856 -155691.425 10 0 60970 26100.00000 0 14345124.139 -20913542.699 3059178.295 10 0 60970 27000.00000 0 13913469.141 -20505795.198 6214874.337 10 0 60970 27900.00000 0 13350475.416 -19723872.319 9250401.334 10 0 60970 28800.00000 0 12713998.729 -18566223.251 12107125.314 10 0 60970 29700.00000 0 12062304.844 -17044540.200 14729888.496 10 0 60970 30600.00000 0 11451471.981 -15183463.306 17068055.790 10 0 60970 31500.00000 0 10932901.235 -13019761.794 19076474.452 10 0 60970 32400.00000 0 10551037.920 -10601024.652 20716330.204 10 0 60970 33300.00000 0 10341397.974 -7983913.804 21955884.925 10 0 60970 34200.00000 0 10328981.049 -5232050.253 22771083.024 10 0 60970 35100.00000 0 10527136.166 -2413618.403 23146015.766 10 0 60970 36000.00000 0 10936927.540 401214.893 23073234.979 10 0 60970 36900.00000 0 11547027.973 3142962.315 22553909.883 10 0 60970 37800.00000 0 12334145.841 5745451.251 21597823.172 10 0 60970 38700.00000 0 13263969.925 8148324.994 20223204.984 10 0 60970 39600.00000 0 14292595.012 10299307.496 18456406.064 10 0 60970 40500.00000 0 15368371.078 12156138.283 16331414.182 10 0 60970 41400.00000 0 16434100.845 13688096.948 13889220.771 10 0 60970 42300.00000 0 17429495.226 14877052.928 11177047.783 10 0 60970 43200.00000 0 18293784.545 15717995.523 8247447.754 10 0 60970 44100.00000 0 18968375.789 16219020.574 5157293.042 10 0 60970 45000.00000 0 19399443.162 16400772.920 1966673.050 10 0 60970 45900.00000 0 19540341.030 16295366.999 -1262279.276 10 0 60970 46800.00000 0 19353735.055 15944830.431 -4466608.242 10 0 60970 47700.00000 0 18813358.678 15399136.300 -7583778.461 10 0 60970 48600.00000 0 17905317.790 14713907.995 -10552914.202 10 0 60970 49500.00000 0 16628885.576 13947895.066 -13316008.784 10 0 60970 50400.00000 0 14996751.550 13160328.791 -15819078.205 10 0 60970 51300.00000 0 13034712.359 12408271.633 -18013234.383 10 0 60970 52200.00000 0 10780816.213 11744075.007 -19855655.253 10 0 60970 53100.00000 0 8283996.501 11213055.061 -21310431.365 10 0 60970 54000.00000 0 5602252.179 10851486.418 -22349271.586 10 0 60970 54900.00000 0 2800451.956 10684999.755 -22952053.843 10 0 60970 55800.00000 0 -52144.774 10727451.314 -23107210.346 10 0 60970 56700.00000 0 -2884545.534 10980311.745 -22811940.511 10 0 60970 57600.00000 0 -5626749.084 11432599.077 -22072248.529 10 0 60970 58500.00000 0 -8212422.263 12061357.201 -20902806.175 10 0 60970 59400.00000 0 -10581417.865 12832657.816 -19326645.111 10 0 60970 60300.00000 0 -12682029.361 13703081.679 -17374686.208 10 0 60970 61200.00000 0 -14472889.886 14621614.798 -15085116.654 10 0 60970 62100.00000 0 -15924438.429 15531877.992 -12502628.363 10 0 60970 63000.00000 0 -17019894.707 16374594.622 -9677533.788 10 0 60970 63900.00000 0 -17755705.001 17090191.711 -6664777.361 10 0 60970 64800.00000 0 -18141443.540 17621424.643 -3522862.524 10 0 60970 65700.00000 0 -18199176.697 17915915.199 -312715.654 10 0 60970 66600.00000 0 -17962319.424 17928496.821 2903490.987 10 0 60970 67500.00000 0 -17474034.244 17623269.531 6063534.649 10 0 60970 68400.00000 0 -16785241.572 16975279.373 9106333.412 10 0 60970 69300.00000 0 -15952325.768 15971753.106 11973111.247 10 0 60970 70200.00000 0 -15034633.302 14612837.343 14608515.696 10 0 60970 71100.00000 0 -14091867.402 12911811.811 16961668.123 10 0 60970 72000.00000 0 -13181487.284 10894767.772 18987127.998 10 0 60970 72900.00000 0 -12356219.479 8599764.413 20645754.366 10 0 60970 73800.00000 0 -11661783.840 6075496.931 21905449.566 10 0 60970 74700.00000 0 -11134927.946 3379529.737 22741772.198 10 0 60970 75600.00000 0 -10801851.033 576165.632 23138408.510 10 0 60970 76500.00000 0 -10677082.794 -2265963.535 23087493.546 10 0 60970 77400.00000 0 -10762864.111 -5076487.725 22589775.667 10 0 60970 78300.00000 0 -11049056.439 -7785966.499 21654620.472 10 0 60970 79200.00000 0 -11513585.156 -10328525.545 20299852.647 10 0 60970 80100.00000 0 -12123400.293 -12644354.286 18551436.880 10 0 60970 81000.00000 0 -12835916.628 -14681961.918 16443001.816 10 0 60970 81900.00000 0 -13600874.960 -16400098.295 14015213.828 10 0 60970 82800.00000 0 -14362548.265 -17769259.112 11315010.479 10 0 60970 83700.00000 0 -15062201.278 -18772711.478 8394706.496 10 0 60970 84600.00000 0 -15640700.435 -19406995.470 5310988.069 10 0 60970 85500.00000 0 -16041163.780 -19681879.030 2123814.153 10 0 60971 0.00000 0 -16211537.699 -19619766.637 -1104753.775 10 0 60971 900.00000 0 -16106989.613 -19254585.469 -4311771.916 10 0 60971 1800.00000 0 -15692012.664 -18630195.670 -7434654.976 10 0 60971 2700.00000 0 -14942150.713 -17798391.895 -10412417.470 10 0 60971 3600.00000 0 -13845267.409 -16816581.473 -13186884.937 10 0 60971 4500.00000 0 -12402303.030 -15745238.879 -15703850.886 10 0 60971 5400.00000 0 -10627484.794 -14645246.066 -17914154.547 10 0 60971 6300.00000 0 -8547980.062 -13575233.238 -19774656.513 10 0 60971 7200.00000 0 -6203006.072 -12589034.557 -21249091.810 10 0 60971 8100.00000 0 -3642433.335 -11733367.999 -22308782.853 10 0 60971 9000.00000 0 -924941.609 -11045838.558 -22933198.043 10 0 60971 9900.00000 0 1884193.524 -10553349.592 -23110345.281 10 0 60971 10800.00000 0 4715589.931 -10270989.116 -22836993.444 10 0 60971 11700.00000 0 7498419.110 -10201437.061 -22118718.546 10 0 60971 12600.00000 0 10163125.523 -10334916.924 -20969775.047 10 0 60971 13500.00000 0 12644091.378 -10649691.826 -19412796.332 10 0 60971 14400.00000 0 14882136.068 -11113081.795 -17478331.770 10 0 60971 15300.00000 0 16826746.929 -11682957.047 -15204230.926 10 0 60971 16200.00000 0 18437949.921 -12309642.159 -12634888.369 10 0 60971 17100.00000 0 19687744.316 -12938149.026 -9820365.003 10 0 60971 18000.00000 0 20561044.138 -13510643.085 -6815404.125 10 0 60971 18900.00000 0 21056089.937 -13969038.051 -3678362.063 10 0 60971 19800.00000 0 21184316.679 -14257609.560 -470074.634 10 0 60971 20700.00000 0 20969686.127 -14325517.907 2747318.420 10 0 60971 21600.00000 0 20447514.149 -14129134.397 5911568.491 10 0 60971 22500.00000 0 19662844.002 -13634074.467 8961510.120 10 0 60971 23400.00000 0 18668434.979 -12816853.248 11838227.870 10 0 60971 24300.00000 0 17522451.178 -11666095.109 14486176.789 10 0 60971 25200.00000 0 16285946.914 -10183247.182 16854236.419 10 0 60971 26100.00000 0 15020253.151 -8382767.223 18896679.674 10 0 60971 27000.00000 0 13784372.892 -6291777.541 20574039.701 10 0 60971 27900.00000 0 12632492.738 -3949198.294 21853859.642 10 0 60971 28800.00000 0 11611712.907 -1404394.428 22711312.241 10 0 60971 29700.00000 0 10760088.986 1284609.882 23129678.313 10 0 60971 30600.00000 0 10105066.108 4053278.027 23100675.368 10 0 60971 31500.00000 0 9662370.454 6832982.931 22624629.852 10 0 60971 32400.00000 0 9435404.503 9553606.768 21710488.940 10 0 60971 33300.00000 0 9415172.201 12146213.305 20375670.286 10 0 60971 34200.00000 0 9580738.553 14545684.104 18645750.738 10 0 60971 35100.00000 0 9900206.232 16693210.530 16553997.833 10 0 60971 36000.00000 0 10332170.213 18538538.544 14140750.744 10 0 60971 36900.00000 0 10827591.199 20041872.519 11452660.343 10 0 60971 37800.00000 0 11332010.462 21175357.696 8541801.112 10 0 60971 38700.00000 0 11788013.657 21924077.817 5464670.520 10 0 60971 39600.00000 0 12137839.653 22286524.298 2281094.435 10 0 60971 40500.00000 0 12326023.355 22274515.493 -946940.395 10 0 60971 41400.00000 0 12301959.119 21912567.891 -4156503.547 10 0 60971 42300.00000 0 12022273.915 21236744.677 -7284962.930 10 0 60971 43200.00000 0 11452906.986 20293029.862 -10271225.670 10 0 60971 44100.00000 0 10570804.918 19135296.903 -13056951.636 10 0 60971 45000.00000 0 9365157.465 17822958.658 -15587713.702 10 0 60971 45900.00000 0 7838119.211 16418399.466 -17814079.968 10 0 60971 46800.00000 0 6004984.515 14984299.726 -19692594.973 10 0 60971 47700.00000 0 3893806.882 13580967.911 -21186639.260 10 0 60971 48600.00000 0 1544478.050 12263794.384 -22267149.593 10 0 60971 49500.00000 0 -992694.636 11080935.751 -22913185.413 10 0 60971 50400.00000 0 -3658852.423 10071328.080 -23112330.627 10 0 60971 51300.00000 0 -6388812.054 9263112.662 -22860923.576 10 0 60971 52200.00000 0 -9113561.328 8672539.799 -22164111.763 10 0 60971 53100.00000 0 -11762918.167 8303395.258 -21035731.598 10 0 60971 54000.00000 0 -14268241.618 8146971.438 -19498017.051 10 0 60971 54900.00000 0 -16565081.603 8182581.927 -17581144.457 10 0 60971 55800.00000 0 -18595657.245 8378595.135 -15322623.898 10 0 60971 56700.00000 0 -20311061.469 8693940.766 -12766550.464 10 0 60971 57600.00000 0 -21673101.513 9080023.298 -9962731.220 10 0 60971 58500.00000 0 -22655700.630 9482959.808 -6965705.936 10 0 60971 59400.00000 0 -23245804.965 9846046.425 -3833681.395 10 0 60971 60300.00000 0 -23443760.424 10112348.570 -627400.434 10 0 60971 61200.00000 0 -23263146.471 10227305.654 2591032.145 10 0 60971 62100.00000 0 -22730076.305 10141240.778 5759344.259 10 0 60971 63000.00000 0 -21881994.751 9811670.563 8816289.298 10 0 60971 63900.00000 0 -20766025.644 9205318.902 11702814.766 10 0 60971 64800.00000 0 -19436938.632 8299751.074 14363185.523 10 0 60971 65700.00000 0 -17954820.442 7084560.479 16746041.489 10 0 60971 66600.00000 0 -16382547.310 5562058.733 18805371.088 10 0 60971 67500.00000 0 -14783162.898 3747440.122 20501383.416 10 0 60971 68400.00000 0 -13217269.457 1668412.761 21801264.012 10 0 60971 69300.00000 0 -11740539.256 -635689.686 22679801.031 10 0 60971 70200.00000 0 -10401448.195 -3115280.941 23119870.797 10 0 60971 71100.00000 0 -9239324.558 -5712325.345 23112773.853 10 0 60971 72000.00000 0 -8282793.193 -8362499.527 22658414.933 10 0 60971 72900.00000 0 -7548679.541 -10997625.930 21765322.615 10 0 60971 73800.00000 0 -7041419.469 -13548280.100 20450506.971 10 0 60971 74700.00000 0 -6753000.378 -15946465.967 18739156.074 10 0 60971 75600.00000 0 -6663437.422 -18128249.732 16664175.060 10 0 60971 76500.00000 0 -6741766.486 -20036243.814 14265574.237 10 0 60971 77400.00000 0 -6947513.978 -21621837.431 11589715.817 10 0 60971 78300.00000 0 -7232583.114 -22847079.994 8688431.772 10 0 60971 79200.00000 0 -7543478.268 -23686137.204 5618028.351 10 0 60971 80100.00000 0 -7823773.889 -24126256.923 2438195.651 10 0 60971 81000.00000 0 -8016723.234 -24168202.244 -789156.847 10 0 60971 81900.00000 0 -8067895.313 -23826131.614 -4001115.633 10 0 60971 82800.00000 0 -7927726.388 -23126929.455 -7135004.569 10 0 60971 83700.00000 0 -7553875.378 -22109014.528 -10129626.479 10 0 60971 84600.00000 0 -6913280.465 -20820676.014 -12926478.664 10 0 60971 85500.00000 0 -5983826.822 -19318007.978 -15470916.374 10 0 60972 0.00000 0 -4755552.165 -17662530.652 -17713239.251 10 0 60972 900.00000 0 -3231336.082 -15918599.539 -19609678.760 10 0 60972 1800.00000 0 -1427043.919 -14150715.662 -21123262.940 10 0 60972 2700.00000 0 628884.184 -12420849.165 -22224544.627 10 0 60972 3600.00000 0 2896380.704 -10785892.566 -22892175.487 10 0 60972 4500.00000 0 5325195.273 -9295350.995 -23113316.059 10 0 60972 5400.00000 0 7856775.048 -7989366.885 -22883874.232 10 0 60972 6300.00000 0 10426501.335 -6897161.614 -22208568.556 10 0 60972 7200.00000 0 12966187.915 -6035958.277 -21100816.483 10 0 60972 8100.00000 0 15406735.874 -5410428.812 -19582451.231 10 0 60972 9000.00000 0 17680833.568 -5012686.146 -17683274.352 10 0 60972 9900.00000 0 19725588.947 -4822818.794 -15440454.297 10 0 60972 10800.00000 0 21484984.837 -4809942.406 -12897784.143 10 0 60972 11700.00000 0 22912055.794 -4933721.097 -10104814.198 10 0 60972 12600.00000 0 23970697.168 -5146291.990 -7115877.459 10 0 60972 13500.00000 0 24637032.913 -5394509.806 -3989027.646 10 0 60972 14400.00000 0 24900287.303 -5622415.513 -784910.944 10 0 60972 15300.00000 0 24763126.574 -5773824.232 2434406.487 10 0 60972 16200.00000 0 24241458.584 -5794923.192 5606632.694 10 0 60972 17100.00000 0 23363700.938 -5636770.760 8670443.274 10 0 60972 18000.00000 0 22169549.752 -5257592.121 11566651.686 10 0 60972 18900.00000 0 20708301.506 -4624776.100 14239335.195 10 0 60972 19800.00000 0 19036798.321 -3716490.169 16636896.233 10 0 60972 20700.00000 0 17217082.010 -2522846.633 18713040.384 10 0 60972 21600.00000 0 15313853.667 -1046571.339 20427653.891 10 0 60972 22500.00000 0 13391843.063 696853.433 21747565.443 10 0 60972 23400.00000 0 11513195.519 2679579.008 22647178.959 10 0 60972 24300.00000 0 9734983.026 4862298.825 23108966.217 10 0 60972 25200.00000 0 8106941.284 7195640.088 23123810.380 10 0 60972 26100.00000 0 6669525.380 9621983.581 22691193.678 10 0 60972 27000.00000 0 5452364.003 12077639.122 21819224.948 10 0 60972 27900.00000 0 4473176.265 14495289.401 20524505.199 10 0 60972 28800.00000 0 3737196.564 16806603.302 18831831.946 10 0 60972 29700.00000 0 3237132.385 18944912.227 16773745.863 10 0 60972 30600.00000 0 2953658.048 20847839.387 14389926.107 10 0 60972 31500.00000 0 2856425.229 22459772.882 11726443.728 10 0 60972 32400.00000 0 2905549.206 23734078.930 8834885.525 10 0 60972 33300.00000 0 3053509.456 24634961.419 5771363.732 10 0 60972 34200.00000 0 3247385.032 25138888.017 2595429.772 10 0 60972 35100.00000 0 3431330.237 25235520.762 -631087.080 10 0 60972 36000.00000 0 3549185.013 24928109.740 -3845293.130 10 0 60972 36900.00000 0 3547107.881 24233331.225 -6984470.995 10 0 60972 37800.00000 0 3376117.634 23180575.530 -9987321.811 10 0 60972 38700.00000 0 2994433.328 21810713.680 -12795182.657 10 0 60972 39600.00000 0 2369510.493 20174394.735 -15353193.225 10 0 60972 40500.00000 0 1479684.459 18329946.137 -17611386.806 10 0 60972 41400.00000 0 315348.676 16340966.693 -19525682.416 10 0 60972 42300.00000 0 -1120383.840 14273715.159 -21058757.147 10 0 60972 43200.00000 0 -2811565.314 12194406.026 -22180780.749 10 0 60972 44100.00000 0 -4729849.907 10166527.730 -22869997.673 10 0 60972 45000.00000 0 -6835464.044 8248297.188 -23113145.340 10 0 60972 45900.00000 0 -9078669.211 6490358.004 -22905701.087 10 0 60972 46800.00000 0 -11401655.072 4933818.748 -22251954.033 10 0 60972 47700.00000 0 -13740782.580 3608712.567 -21164901.774 10 0 60972 48600.00000 0 -16029082.204 2532940.948 -19665975.449 10 0 60972 49500.00000 0 -18198902.021 1711743.457 -17784600.091 10 0 60972 50400.00000 0 -20184594.478 1137712.783 -15557600.443 10 0 60972 51300.00000 0 -21925129.575 791351.241 -13028465.221 10 0 60972 52200.00000 0 -23366525.830 642142.108 -10246485.448 10 0 60972 53100.00000 0 -24463998.450 650087.743 -7265784.720 10 0 60972 54000.00000 0 -25183736.511 767647.146 -4144261.041 10 0 60972 54900.00000 0 -25504236.731 941989.374 -942461.289 10 0 60972 55800.00000 0 -25417140.208 1117466.544 2277589.646 10 0 60972 56700.00000 0 -24927539.282 1238201.610 5453582.524 10 0 60972 57600.00000 0 -24053743.661 1250681.903 8524117.688 10 0 60972 58500.00000 0 -22826517.197 1106249.794 11429877.017 10 0 60972 59400.00000 0 -21287818.279 763386.571 14114752.528 10 0 60972 60300.00000 0 -19489096.811 189694.562 16526911.357 10 0 60972 61200.00000 0 -17489218.605 -636504.792 18619778.210 10 0 60972 62100.00000 0 -15352102.669 -1725023.335 20352918.146 10 0 60972 63000.00000 0 -13144168.278 -3073157.064 21692804.333 10 0 60972 63900.00000 0 -10931696.073 -4665563.241 22613457.404 10 0 60972 64800.00000 0 -8778210.752 -6474670.226 23096945.165 10 0 60972 65700.00000 0 -6741991.927 -8461605.041 23133733.570 10 0 60972 66600.00000 0 -4873814.758 -10577602.625 22722882.166 10 0 60972 67500.00000 0 -3215012.769 -12765841.136 21872079.537 10 0 60972 68400.00000 0 -1795942.544 -14963630.062 20597516.806 10 0 60972 69300.00000 0 -634914.047 -17104862.942 18923599.813 10 0 60972 70200.00000 0 262368.473 -19122635.059 16882503.369 10 0 60972 71100.00000 0 902830.711 -20951918.770 14513573.805 10 0 60972 72000.00000 0 1305515.398 -22532185.673 11862589.076 10 0 60972 72900.00000 0 1500552.426 -23809866.036 8980888.639 10 0 60972 73800.00000 0 1527654.093 -24740541.563 5924388.341 10 0 60972 74700.00000 0 1434198.037 -25290777.873 2752498.407 10 0 60972 75600.00000 0 1272978.530 -25439517.482 -473034.744 10 0 60972 76500.00000 0 1099721.701 -25178972.228 -3689339.971 10 0 60972 77400.00000 0 970471.057 -24514975.114 -6833661.441 10 0 60972 78300.00000 0 938956.010 -23466774.654 -9844601.424 10 0 60972 79200.00000 0 1054057.362 -22066278.817 -12663339.598 10 0 60972 80100.00000 0 1357479.962 -20356779.674 -15234802.849 10 0 60972 81000.00000 0 1881733.974 -18391212.401 -17508760.545 10 0 60972 81900.00000 0 2648512.869 -16230022.618 -19440822.037 10 0 60972 82800.00000 0 3667539.009 -13938733.010 -20993315.316 10 0 60972 83700.00000 0 4935927.231 -11585313.002 -22136028.704 10 0 60972 84600.00000 0 6438094.321 -9237463.511 -22846800.632 10 0 60972 85500.00000 0 8146218.512 -6959931.976 -23111946.108 10 0 60973 0.00000 0 10021229.241 -4811971.249 -22926512.182 10 0 60973 900.00000 0 12014285.885 -2845047.773 -22294358.271 10 0 60973 1800.00000 0 14068679.842 -1100897.263 -21228061.447 10 0 60973 2700.00000 0 16122082.379 389995.989 -19748649.698 10 0 60973 3600.00000 0 18109040.580 1609431.793 -17885170.098 10 0 60973 4500.00000 0 19963616.993 2551999.430 -15674101.851 10 0 60973 5400.00000 0 21622061.912 3225037.516 -13158627.099 10 0 60973 6300.00000 0 23025406.542 3648053.474 -10387775.000 10 0 60973 7200.00000 0 24121869.046 3851630.288 -7415456.821 10 0 60973 8100.00000 0 24868973.878 3875869.522 -4299411.633 10 0 60973 9000.00000 0 25235297.200 3768438.637 -1100083.593 10 0 60973 9900.00000 0 25201767.095 3582306.653 2120547.170 10 0 60973 10800.00000 0 24762466.070 3373264.673 5300157.581 10 0 60973 11700.00000 0 23924904.108 3197336.091 8377276.016 10 0 60973 12600.00000 0 22709752.392 3108185.319 11292455.801 10 0 60973 13500.00000 0 21150049.933 3154633.355 13989406.404 10 0 60973 14400.00000 0 19289916.717 3378383.608 16416061.969 10 0 60973 15300.00000 0 17182826.912 3812052.462 18525568.248 10 0 60973 16200.00000 0 14889513.196 4477586.263 20277170.646 10 0 60973 17100.00000 0 12475587.972 5385130.583 21636987.956 10 0 60973 18000.00000 0 10008978.402 6532399.170 22578658.293 10 0 60973 18900.00000 0 7557279.527 7904569.733 23083845.874 10 0 60973 19800.00000 0 5185133.006 9474712.474 23142599.457 10 0 60973 20700.00000 0 2951738.049 11204735.658 22753555.512 10 0 60973 21600.00000 0 908596.030 13046811.504 21923981.569 10 0 60973 22500.00000 0 -902418.903 14945225.956 20669657.651 10 0 60973 23400.00000 0 -2450583.656 16838578.180 19014596.324 10 0 60973 24300.00000 0 -3717381.054 18662240.730 16990604.580 10 0 60973 25200.00000 0 -4697041.206 20350979.830 14636693.667 10 0 60973 26100.00000 0 -5396545.694 21841627.527 11998345.939 10 0 60973 27000.00000 0 -5835093.162 23075694.343 9126650.816 10 0 60973 27900.00000 0 -6043047.507 24001812.341 6077324.911 10 0 60973 28800.00000 0 -6060411.876 24577904.656 2909634.319 10 0 60973 29700.00000 0 -5934892.298 24772988.163 -314760.385 10 0 60973 30600.00000 0 -5719632.839 24568530.856 -3533013.596 10 0 60973 31500.00000 0 -5470718.889 23959304.076 -6682333.937 10 0 60973 32400.00000 0 -5244555.843 22953691.108 -9701227.573 10 0 60973 33300.00000 0 -5095236.359 21573437.058 -12530719.335 10 0 60973 34200.00000 0 -5072010.299 19852849.090 -15115525.576 10 0 60973 35100.00000 0 -5216967.310 17837480.029 -17405153.727 10 0 60973 36000.00000 0 -5563032.783 15582350.772 -19354905.135 10 0 60973 36900.00000 0 -6132364.373 13149787.013 -20926760.038 10 0 60973 37800.00000 0 -6935218.627 10606962.325 -22090126.361 10 0 60973 38700.00000 0 -7969336.800 8023252.071 -22822437.240 10 0 60973 39600.00000 0 -9219876.211 5467510.429 -23109585.659 10 0 60973 40500.00000 0 -10659889.909 3005385.570 -22946188.340 10 0 60973 41400.00000 0 -12251333.741 696785.775 -22335674.704 10 0 60973 42300.00000 0 -13946557.391 -1406397.755 -21290200.523 10 0 60973 43200.00000 0 -15690215.472 -3262217.181 -19830389.422 10 0 60973 44100.00000 0 -17421517.134 -4840164.720 -17984908.880 10 0 60973 45000.00000 0 -19076718.682 -6122179.559 -15789890.548 10 0 60973 45900.00000 0 -20591753.823 -7103125.925 -13288207.689 10 0 60973 46800.00000 0 -21904890.909 -7790725.646 -10528625.055 10 0 60973 47700.00000 0 -22959305.850 -8204951.439 -7564838.895 10 0 60973 48600.00000 0 -23705463.482 -8376909.747 -4454426.571 10 0 60973 49500.00000 0 -24103208.638 -8347262.928 -1257726.707 10 0 60973 50400.00000 0 -24123480.693 -8164259.521 1963328.151 10 0 60973 51300.00000 0 -23749581.392 -7881457.067 5146403.911 10 0 60973 52200.00000 0 -22977944.506 -7555234.257 8229959.754 10 0 60973 53100.00000 0 -21818376.549 -7242197.229 11154423.151 10 0 60973 54000.00000 0 -20293759.634 -6996588.678 13863323.587 10 0 60973 54900.00000 0 -18439229.418 -6867807.807 16304364.600 10 0 60973 55800.00000 0 -16300862.394 -6898144.099 18430415.093 10 0 60973 56700.00000 0 -13933926.489 -7120818.872 20200402.591 10 0 60973 57600.00000 0 -11400766.344 -7558415.782 21580092.898 10 0 60973 58500.00000 0 -8768409.245 -8221765.545 22542742.574 10 0 60973 59400.00000 0 -6105988.752 -9109331.703 23069612.782 10 0 60973 60300.00000 0 -3482090.350 -10207124.003 23150335.204 10 0 60973 61200.00000 0 -962126.769 -11489144.609 22783122.975 10 0 60973 62100.00000 0 1394150.412 -12918350.775 21974821.966 10 0 60973 63000.00000 0 3534901.375 -14448096.450 20740800.204 10 0 60973 63900.00000 0 5418118.517 -16023995.478 19104675.800 10 0 60973 64800.00000 0 7013137.317 -17586131.322 17097886.479 10 0 60973 65700.00000 0 8301674.478 -19071523.262 14759106.693 10 0 60973 66600.00000 0 9278349.201 -20416747.525 12133521.206 10 0 60973 67500.00000 0 9950664.633 -21560604.333 9271967.149 10 0 60973 68400.00000 0 10338448.976 -22446718.850 6229959.408 10 0 60973 69300.00000 0 10472778.530 -23025965.630 3066617.240 10 0 60973 70200.00000 0 10394427.203 -23258612.729 -156487.466 10 0 60973 71100.00000 0 10151907.612 -23116092.640 -3376537.563 10 0 60973 72000.00000 0 9799186.943 -22582322.610 -6530709.070 10 0 60973 72900.00000 0 9393175.322 -21654515.786 -9557414.956 10 0 60973 73800.00000 0 8991094.789 -20343446.433 -12397528.015 10 0 60973 74700.00000 0 8647842.595 -18673155.986 -14995556.749 10 0 60973 75600.00000 0 8413463.043 -16680110.985 -17300749.121 10 0 60973 76500.00000 0 8330837.501 -14411847.774 -19268100.690 10 0 60973 77400.00000 0 8433692.700 -11925161.114 -20859245.821 10 0 60973 78300.00000 0 8745013.441 -9283913.538 -22043213.528 10 0 60973 79200.00000 0 9275928.052 -6556558.476 -22797032.690 10 0 60973 80100.00000 0 10025114.263 -3813482.179 -23106174.850 10 0 60973 81000.00000 0 10978750.433 -1124276.800 -22964826.551 10 0 60973 81900.00000 0 12111013.525 1444940.644 -22375986.868 10 0 60973 82800.00000 0 13385101.653 3834051.229 -21351389.547 10 0 60973 83700.00000 0 14754736.729 5991194.205 -19911252.759 10 0 60973 84600.00000 0 16166082.466 7874671.141 -18083862.949 10 0 60973 85500.00000 0 17559995.621 9454416.620 -15905002.457 99